FW8381 Weather Reports


time (UTC)temp
F
wind
direction
speed
knots
gust
knots
rain 1hr
in
rain 24hr
in
rain mn
in
humidity
%
barometer
mb
20260510063517 48 23 0.9 3.5 0.00 0.41 0.00 95 1011.7
20260510062517 46 0.0 0.9 0.00 0.41 0.00 95 1011.5
20260510061517 44 23 0.9 2.6 0.00 0.41 0.00 95 1011.1
20260510060517 44 45 0.9 3.5 0.00 0.41 0.00 95 1011.1
20260510055517 44 0.0 1.7 0.00 0.41 0.00 95 1011.1
20260510054517 44 0.0 3.5 0.00 0.41 0.00 95 1011.3
20260510053518 44 0 0.9 2.6 0.00 0.41 0.00 95 1011.1
20260510052517 44 23 0.9 1.7 0.00 0.41 0.00 95 1011.3
20260510051517 43 0.0 2.6 0.00 0.41 0.00 95 1011.3
20260510050517 44 23 2.6 6.1 0.00 0.41 0.00 95 1011.3
20260510045517 44 23 1.7 5.2 0.00 0.41 0.00 95 1011.2
20260510044516 43 23 2.6 6.1 0.00 0.41 0.00 95 1011.2
20260510043517 43 23 1.7 3.5 0.00 0.41 0.00 95 1011.5
20260510042517 44 23 1.7 4.3 0.00 0.41 0.00 95 1011.6
20260510041517 43 45 2.6 4.3 0.00 0.41 0.00 95 1011.6
20260510040516 44 338 0.9 2.6 0.00 0.41 0.00 95 1011.7
20260510035517 44 23 1.7 5.2 0.00 0.41 0.00 95 1011.6
20260510034517 45 23 1.7 5.2 0.00 0.41 0.00 95 1011.7
20260510033517 44 23 1.7 4.3 0.00 0.41 0.00 95 1012.1
20260510032517 45 45 3.5 6.1 0.00 0.41 0.00 95 1012.2
20260510031537 45 0 1.7 4.3 0.00 0.41 0.00 95 1012.2
20260510030517 45 23 2.6 4.3 0.00 0.41 0.00 95 1012.2
20260510025557 45 23 1.7 4.3 0.00 0.41 0.00 95 1012.3
20260510024538 45 23 3.5 5.2 0.00 0.41 0.00 95 1012.6
20260510023517 45 0.0 1.7 0.00 0.41 0.00 95 1012.5
20260510022517 45 23 1.7 4.3 0.00 0.41 0.00 95 1012.6
20260510021517 45 338 0.9 2.6 0.00 0.41 0.00 95 1012.5
20260510020516 46 315 0.9 3.5 0.00 0.41 0.00 95 1012.5
20260510015516 46 0 1.7 3.5 0.00 0.41 0.00 95 1012.5
20260510014537 46 23 3.5 5.2 0.00 0.41 0.00 95 1012.5
20260510013516 46 23 2.6 4.3 0.00 0.41 0.00 95 1012.4
20260510012517 46 0 0.9 3.5 0.00 0.41 0.00 95 1012.4
20260510011516 47 0.0 0.9 0.00 0.41 0.00 95 1012.6
20260510010516 47 23 0.9 1.7 0.00 0.41 0.00 95 1012.9
20260510005517 47 315 0.9 1.7 0.00 0.41 0.00 95 1012.7
20260510004558 47 0 2.6 4.3 0.00 0.41 0.00 95 1012.8
20260510003517 48 45 0.9 1.7 0.00 0.41 0.00 95 1013.1
20260510002516 48 0.0 0.9 0.00 0.41 0.00 95 1013.5
20260510001516 48 0.0 0.0 0.00 0.41 0.00 95 1013.7
20260510000517 47 0.0 0.9 0.00 0.41 0.00 95 1013.7
20260509235517 47 45 2.6 3.5 0.00 0.41 0.41 95 1013.8
20260509234517 48 0.0 0.0 0.00 0.41 0.41 95 1013.9
20260509233517 47 0.0 0.9 0.00 0.41 0.41 94 1013.8
20260509232537 47 0.0 0.9 0.00 0.41 0.41 95 1014.0
20260509231517 47 0.0 0.0 0.00 0.41 0.41 94 1014.5
20260509230517 47 45 0.9 1.7 0.00 0.41 0.41 94 1014.2
20260509225537 48 45 0.9 2.6 0.00 0.41 0.41 94 1014.6
20260509224517 48 0.0 0.0 0.00 0.41 0.41 95 1014.6
20260509223537 48 45 0.9 1.7 0.00 0.41 0.41 94 1014.3
20260509222517 48 0.0 0.0 0.00 0.41 0.41 94 1014.5
20260509221517 48 45 0.9 2.6 0.00 0.41 0.41 94 1014.3
20260509220517 48 0.0 1.7 0.00 0.41 0.41 94 1014.5
20260509215516 48 0.0 0.9 0.01 0.41 0.41 94 1014.5
20260509214517 48 45 0.9 1.7 0.01 0.41 0.41 94 1014.4
20260509213516 48 0.0 0.9 0.01 0.41 0.41 94 1014.5
20260509212517 48 23 0.9 2.6 0.01 0.41 0.41 94 1014.5
20260509211516 48 23 0.9 3.5 0.01 0.41 0.41 94 1014.2
20260509210517 48 0.0 0.0 0.01 0.41 0.41 94 1014.2
20260509205536 48 45 0.9 2.6 0.00 0.40 0.40 94 1014.1
20260509204517 48 45 0.9 3.5 0.00 0.40 0.40 94 1014.1
20260509203516 48 0.0 0.9 0.00 0.40 0.40 94 1013.8
20260509202516 48 0.0 1.7 0.00 0.40 0.40 94 1013.8
20260509201516 48 23 2.6 3.5 0.00 0.40 0.40 94 1013.4
20260509200517 48 23 1.7 4.3 0.00 0.40 0.40 94 1012.9
20260509195517 48 0.0 0.0 0.02 0.40 0.40 94 1013.0
20260509194537 48 0.0 0.0 0.02 0.40 0.40 94 1012.7
20260509193516 48 0.0 0.0 0.04 0.40 0.40 94 1012.2
20260509192516 48 0.0 0.0 0.06 0.40 0.40 94 1012.0
20260509191517 48 0.0 0.0 0.09 0.40 0.40 94 1011.9
20260509190516 49 0.0 0.0 0.12 0.40 0.40 93 1011.7
20260509185517 49 270 0.9 5.2 0.13 0.39 0.39 93 1011.5
20260509184517 49 0.0 1.7 0.14 0.38 0.38 93 1011.2
20260509183516 49 0.0 0.9 0.14 0.36 0.36 93 1011.0
20260509182516 49 338 0.9 2.6 0.15 0.35 0.35 93 1011.1
20260509181517 49 45 0.9 1.7 0.14 0.31 0.31 93 1011.5
20260509180516 49 68 0.9 3.5 0.13 0.28 0.28 93 1011.7
20260509175516 49 23 0.9 1.7 0.13 0.25 0.25 93 1011.7
20260509174557 50 68 1.7 4.3 0.16 0.24 0.24 92 1011.8
20260509173557 50 45 0.9 2.6 0.20 0.22 0.22 92 1011.8
20260509172516 51 0.0 1.7 0.20 0.20 0.20 92 1012.3
20260509171517 51 225 0.9 2.6 0.17 0.17 0.17 91 1012.5
20260509170516 51 225 0.9 3.5 0.15 0.15 0.15 91 1012.6
20260509165557 51 180 1.7 4.3 0.12 0.12 0.12 90 1012.5
20260509164516 52 158 2.6 5.2 0.08 0.08 0.08 89 1012.7
20260509163536 53 180 0.9 3.5 0.02 0.02 0.02 88 1012.9
20260509162516 53 180 1.7 5.2 0.00 0.00 0.00 87 1012.8
20260509161516 53 225 4.3 7.8 0.00 0.00 0.00 87 1012.6
20260509160516 53 203 4.3 7.0 0.00 0.00 0.00 87 1012.0
20260509155517 53 203 5.2 9.6 0.00 0.00 0.00 87 1011.7
20260509154516 54 225 5.2 9.6 0.00 0.00 0.00 87 1011.5
20260509153536 54 225 7.0 9.6 0.00 0.00 0.00 86 1011.3
20260509152516 54 225 5.2 11.3 0.00 0.00 0.00 85 1011.1
20260509151516 54 203 4.3 8.7 0.00 0.00 0.00 85 1011.4
20260509150516 54 248 3.5 6.1 0.00 0.00 0.00 85 1011.5
20260509145516 55 225 2.6 5.2 0.00 0.00 0.00 84 1011.9
20260509144516 55 203 5.2 9.6 0.00 0.00 0.00 82 1012.2
20260509143516 55 180 2.6 5.2 0.00 0.00 0.00 82 1012.4
20260509142516 56 225 2.6 5.2 0.00 0.00 0.00 82 1012.5
20260509141536 56 225 0.9 2.6 0.00 0.00 0.00 81 1012.6
20260509140516 55 203 2.6 4.3 0.00 0.00 0.00 81 1012.8
20260509135517 56 248 3.5 6.1 0.00 0.00 0.00 81 1013.2
20260509134516 56 225 4.3 9.6 0.00 0.00 0.00 80 1013.2
20260509133515 56 203 4.3 9.6 0.00 0.00 0.00 79 1013.4
20260509132516 57 203 4.3 9.6 0.00 0.00 0.00 79 1013.5
20260509131516 56 180 5.2 7.8 0.00 0.00 0.00 78 1013.1
20260509130517 57 225 4.3 7.8 0.00 0.00 0.00 79 1013.3
20260509125516 57 180 1.7 4.3 0.00 0.00 0.00 78 1012.8
20260509124515 56 180 2.6 6.1 0.00 0.00 0.00 78 1013.3
20260509123536 56 180 3.5 7.0 0.00 0.00 0.00 79 1013.6
20260509122516 56 180 4.3 7.8 0.00 0.00 0.00 79 1013.6
20260509121516 56 180 4.3 7.0 0.00 0.00 0.00 78 1013.8
20260509120515 57 180 5.2 9.6 0.00 0.00 0.00 77 1014.2
20260509115516 57 203 5.2 8.7 0.00 0.00 0.00 76 1014.1
20260509114536 57 180 5.2 9.6 0.00 0.00 0.00 74 1014.0
20260509113518 58 180 4.3 9.6 0.00 0.00 0.00 72 1014.1
20260509112517 59 225 3.5 7.0 0.00 0.00 0.00 73 1014.1
20260509111518 59 203 2.6 7.0 0.00 0.00 0.00 72 1014.0
20260509110518 59 225 4.3 7.8 0.00 0.00 0.00 73 1014.0
20260509105517 58 225 4.3 7.0 0.00 0.00 0.00 72 1014.4
20260509104518 58 203 5.2 10.4 0.00 0.00 0.00 72 1014.5
20260509103518 58 225 3.5 7.8 0.00 0.00 0.00 74 1014.6
20260509102518 57 180 3.5 7.0 0.00 0.00 0.00 74 1014.7
20260509101518 58 180 6.1 8.7 0.00 0.00 0.00 73 1014.8
20260509100517 59 180 1.7 5.2 0.00 0.00 0.00 71 1014.8
20260509095517 59 225 4.3 7.8 0.00 0.00 0.00 70 1014.6
20260509094518 59 203 3.5 7.8 0.00 0.00 0.00 73 1014.3
20260509093518 58 180 3.5 6.1 0.00 0.00 0.00 74 1014.4
20260509092517 58 203 3.5 6.1 0.00 0.00 0.00 72 1014.5
20260509091518 58 180 1.7 5.2 0.00 0.00 0.00 71 1014.4
20260509090517 57 158 2.6 5.2 0.00 0.00 0.00 74 1014.5
20260509085518 57 203 3.5 6.1 0.00 0.00 0.00 76 1014.4
20260509084517 57 225 1.7 4.3 0.00 0.00 0.00 77 1014.4
20260509083517 55 180 2.6 5.2 0.00 0.00 0.00 79 1014.3
20260509082518 56 180 2.6 5.2 0.00 0.00 0.00 80 1014.5
20260509081517 56 0.0 1.7 0.00 0.00 0.00 83 1014.4
20260509080517 54 203 1.7 3.5 0.00 0.00 0.00 86 1014.5
20260509075518 54 203 2.6 4.3 0.00 0.00 0.00 88 1014.4
20260509074517 55 135 0.9 2.6 0.00 0.00 0.00 91 1014.7
20260509073517 53 0.0 1.7 0.00 0.00 0.00 92 1014.6
20260509072537 52 180 1.7 4.3 0.00 0.00 0.00 93 1014.7
20260509071517 52 45 0.9 1.7 0.00 0.00 0.00 94 1014.5
20260509070517 51 68 0.9 3.5 0.00 0.00 0.00 94 1014.8
20260509065517 51 0.0 0.9 0.00 0.00 0.00 94 1015.0
20260509064517 49 180 0.9 2.6 0.00 0.00 0.00 94 1014.8